Location: Taupo
(38.6830°S, 176.0830°E)
Time: 04:13:57
(UTC+13:00)

ISS - Pass Details

Date: 31 January 2019
Orbit: 403 x 411 km, 51.6° (Epoch: 23 February)

Event Time Altitude Azimuth Distance (km) Brightness Sun altitude
Exits shadow 04:35:00 53° 17° (NNE) 518 -3.5 -18.8°
Maximum altitude 04:35:18 56° 43° (NE) 502 -3.5 -18.8°
Drops below altitude 10° 04:38:42 - 121° (ESE) 1,538 0.3 -18.3°
Sets 04:40:43 0° 125° (SE) 2,362 1.7 -18.0°
